Time,TemperatureF,DewpointF,PressureIn,WindDirection,WindDirectionDegrees,WindSpeedMPH,WindSpeedGustMPH,Humidity,HourlyPrecipIn,Conditions,Clouds,dailyrainin,SoftwareType,DateUTC
2013-05-19 00:21:00,75.2,66.6,29.82,SE,143,1.1,5.5,74,0.00,,,0.00,WUHU216DAVISVP2,2013-05-19 05:21:00,
2013-05-19 00:51:00,74.5,67.8,29.82,SE,146,1.1,4.4,79,0.00,,,0.00,WUHU216DAVISVP2,2013-05-19 05:51:00,
2013-05-19 01:21:00,74.0,68.7,29.82,SE,145,4.4,5.5,83,0.00,,,0.00,WUHU216DAVISVP2,2013-05-19 06:21:00,
2013-05-19 01:51:00,73.7,69.4,29.81,SE,142,2.2,7.7,86,0.00,,,0.00,WUHU216DAVISVP2,2013-05-19 06:51:00,
2013-05-19 02:21:00,73.9,69.6,29.80,SE,128,2.2,8.0,86,0.00,,,0.00,WUHU216DAVISVP2,2013-05-19 07:21:00,
2013-05-19 02:51:00,74.0,69.7,29.79,SE,131,2.2,9.0,86,0.00,,,0.00,WUHU216DAVISVP2,2013-05-19 07:51:00,
2013-05-19 03:21:00,73.6,69.3,29.78,SE,145,4.4,9.0,86,0.00,,,0.00,WUHU216DAVISVP2,2013-05-19 08:21:00,
2013-05-19 03:51:00,73.6,69.3,29.78,ESE,119,1.1,8.8,86,0.00,,,0.00,WUHU216DAVISVP2,2013-05-19 08:51:00,
2013-05-19 04:21:00,73.5,69.2,29.77,SE,145,4.4,8.0,86,0.00,,,0.00,WUHU216DAVISVP2,2013-05-19 09:21:00,
2013-05-19 04:51:00,73.8,69.1,29.78,SE,143,2.2,6.6,85,0.00,,,0.00,WUHU216DAVISVP2,2013-05-19 09:51:00,
2013-05-19 05:21:00,74.0,69.3,29.79,East,91,3.3,6.6,85,0.00,,,0.00,WUHU216DAVISVP2,2013-05-19 10:21:00,
2013-05-19 05:51:00,74.1,69.4,29.78,SE,145,3.3,5.5,85,0.00,,,0.00,WUHU216DAVISVP2,2013-05-19 10:51:00,
2013-05-19 06:21:00,74.0,69.3,29.78,SE,145,2.2,9.9,85,0.00,,,0.00,WUHU216DAVISVP2,2013-05-19 11:21:00,
2013-05-19 06:51:00,74.0,69.7,29.79,SE,146,2.2,5.5,86,0.00,,,0.00,WUHU216DAVISVP2,2013-05-19 11:51:00,
2013-05-19 07:21:00,74.4,70.1,29.79,SSE,148,0.0,7.7,86,0.00,,,0.00,WUHU216DAVISVP2,2013-05-19 12:21:00,
2013-05-19 07:52:00,75.1,70.4,29.80,SE,144,2.2,4.4,85,0.00,,,0.00,WUHU216DAVISVP2,2013-05-19 12:52:00,
2013-05-19 08:22:00,75.9,70.9,29.81,South,170,4.4,7.0,84,0.00,,,0.00,WUHU216DAVISVP2,2013-05-19 13:22:00,
2013-05-19 08:52:00,77.3,71.6,29.80,SSE,161,7.7,8.0,82,0.00,,,0.00,WUHU216DAVISVP2,2013-05-19 13:52:00,
2013-05-19 09:22:00,78.8,71.6,29.80,South,179,8.8,14.3,78,0.00,,,0.00,WUHU216DAVISVP2,2013-05-19 14:22:00,
2013-05-19 09:52:00,80.7,71.9,29.79,SSE,159,11.0,16.0,74,0.00,,,0.00,WUHU216DAVISVP2,2013-05-19 14:52:00,
2013-05-19 10:22:00,82.4,72.8,29.79,ESE,105,5.5,13.2,72,0.00,,,0.00,WUHU216DAVISVP2,2013-05-19 15:22:00,
2013-05-19 10:52:00,83.8,72.9,29.78,SE,135,7.7,16.5,69,0.00,,,0.00,WUHU216DAVISVP2,2013-05-19 15:52:00,
2013-05-19 11:22:00,84.9,72.2,29.78,SSE,153,6.6,13.0,65,0.00,,,0.00,WUHU216DAVISVP2,2013-05-19 16:22:00,
2013-05-19 11:52:00,86.8,72.6,29.78,South,170,8.8,15.0,62,0.00,,,0.00,WUHU216DAVISVP2,2013-05-19 16:52:00,
2013-05-19 12:22:00,87.7,73.5,29.78,SE,124,4.4,17.6,62,0.00,,,0.00,WUHU216DAVISVP2,2013-05-19 17:22:00,
2013-05-19 12:52:00,88.6,73.4,29.76,SSE,151,9.9,14.0,60,0.00,,,0.00,WUHU216DAVISVP2,2013-05-19 17:52:00,
2013-05-19 13:22:00,89.4,72.1,29.75,SE,130,12.1,18.7,56,0.00,,,0.00,WUHU216DAVISVP2,2013-05-19 18:22:00,
2013-05-19 13:52:00,89.8,71.3,29.74,South,183,5.5,14.3,54,0.00,,,0.00,WUHU216DAVISVP2,2013-05-19 18:52:00,
2013-05-19 14:22:00,91.9,72.7,29.73,SSE,157,9.9,15.0,53,0.00,,,0.00,WUHU216DAVISVP2,2013-05-19 19:22:00,
2013-05-19 14:52:00,90.9,71.8,29.71,SSE,147,12.1,23.1,53,0.00,,,0.00,WUHU216DAVISVP2,2013-05-19 19:52:00,
2013-05-19 15:22:00,91.6,71.3,29.70,SSE,148,13.2,18.7,51,0.00,,,0.00,WUHU216DAVISVP2,2013-05-19 20:22:00,
2013-05-19 15:52:00,92.5,72.1,29.69,SE,145,4.4,13.2,51,0.00,,,0.00,WUHU216DAVISVP2,2013-05-19 20:52:00,
2013-05-19 16:22:00,91.5,71.2,29.68,SE,133,5.5,15.4,51,0.00,,,0.00,WUHU216DAVISVP2,2013-05-19 21:22:00,
2013-05-19 16:52:00,91.5,71.2,29.67,ESE,114,5.5,16.5,51,0.00,,,0.00,WUHU216DAVISVP2,2013-05-19 21:52:00,
2013-05-19 17:22:00,91.7,71.4,29.67,SSE,147,7.7,14.3,51,0.00,,,0.00,WUHU216DAVISVP2,2013-05-19 22:22:00,
2013-05-19 17:52:00,90.3,71.8,29.67,SSE,147,3.3,14.3,54,0.00,,,0.00,WUHU216DAVISVP2,2013-05-19 22:52:00,
2013-05-19 18:22:00,89.7,71.3,29.67,ESE,119,4.4,16.5,54,0.00,,,0.00,WUHU216DAVISVP2,2013-05-19 23:22:00,
2013-05-19 18:52:00,88.8,70.4,29.67,South,170,7.7,16.5,54,0.00,,,0.00,WUHU216DAVISVP2,2013-05-19 23:52:00,
2013-05-19 19:22:00,87.0,69.3,29.67,SE,138,7.7,15.4,55,0.00,,,0.00,WUHU216DAVISVP2,2013-05-20 00:22:00,
2013-05-19 19:52:00,84.9,68.4,29.68,SSE,166,6.6,15.0,57,0.00,,,0.00,WUHU216DAVISVP2,2013-05-20 00:52:00,
2013-05-19 20:22:00,83.5,68.1,29.70,SE,134,9.9,12.1,59,0.00,,,0.00,WUHU216DAVISVP2,2013-05-20 01:22:00,
2013-05-19 20:52:00,81.9,67.5,29.72,SE,135,4.4,13.2,61,0.00,,,0.00,WUHU216DAVISVP2,2013-05-20 01:52:00,
2013-05-19 21:22:00,80.8,68.8,29.73,SE,136,4.4,14.3,66,0.00,,,0.00,WUHU216DAVISVP2,2013-05-20 02:22:00,
2013-05-19 21:52:00,79.3,69.0,29.74,SSE,166,4.4,12.0,70,0.00,,,0.00,WUHU216DAVISVP2,2013-05-20 02:52:00,
2013-05-19 22:22:00,77.7,69.8,29.75,East,100,5.5,12.1,76,0.00,,,0.00,WUHU216DAVISVP2,2013-05-20 03:22:00,
2013-05-19 22:52:00,76.6,70.2,29.77,ESE,115,3.3,11.0,80,0.00,,,0.00,WUHU216DAVISVP2,2013-05-20 03:52:00,
2013-05-19 23:22:00,75.7,70.3,29.78,SSE,151,7.7,13.2,83,0.00,,,0.00,WUHU216DAVISVP2,2013-05-20 04:22:00,
2013-05-19 23:52:00,75.1,70.4,29.78,SSE,147,4.4,9.9,85,0.00,,,0.00,WUHU216DAVISVP2,2013-05-20 04:52:00,